FW1662 Oyster Bay NY US current weather conditions

sailwx.info

Wind from 067 at 0 knots gusting 3

Air temperature 11.1° C
Dewpoint 9.7° C

Last reported at 2019-Oct-21 00:00 UTC.
Time now 2019-Oct-21 00:34 UTC

Location: N 40°48' W 073°30'.
View on Google Maps.

See reports from other nearby stations

  
Tides and Currents Weather Stations Pressure Air Temp Water Temp Dewpoint Dewpoint Depression Visibility Wind Speed Wind Dir Waves Ship Positions
date/time (UTC)wind fromknots sea level pressurealtimeterstation pressurevisibilityair tempwater tempwave heightnotes
2019-Oct-21 00:00 067 0 gusting 3 11.1
2019-Oct-20 23:45 136 10.6
2019-Oct-20 23:30 079 10.6
2019-Oct-20 23:15 056 0 gusting 6 10.6
2019-Oct-20 23:00 150 1 gusting 6 11.1
2019-Oct-20 22:45 110 0 gusting 6 11.7
2019-Oct-20 22:30 058 1 gusting 5 12.2
2019-Oct-20 22:15 141 12.2
2019-Oct-20 22:00 135 0 gusting 3 12.2
2019-Oct-20 21:45 130 12.2
2019-Oct-20 21:30 116 1 gusting 5 12.8
2019-Oct-20 21:16 101 0 gusting 3 12.8
2019-Oct-20 21:02 121 0 gusting 4 12.8
2019-Oct-20 20:46 158 13.3
2019-Oct-20 20:31 104 13.3
2019-Oct-20 20:17 104 13.3
2019-Oct-20 20:01 104 13.3
2019-Oct-20 19:47 104 13.9
2019-Oct-20 19:33 115 13.9
2019-Oct-20 19:17 115 13.9
2019-Oct-20 19:02 129 13.9
2019-Oct-20 18:47 098 14.4
2019-Oct-20 18:31 115 15.0
2019-Oct-20 18:18 139 0 gusting 2 15.6
2019-Oct-20 18:02 124 15.6
2019-Oct-20 17:47 217 0 gusting 3 15.6
2019-Oct-20 17:31 148 0 gusting 1 15.6
2019-Oct-20 17:16 162 15.6
2019-Oct-20 17:03 148 0 gusting 4 15.6
2019-Oct-20 16:46 104 0 gusting 3 15.6
2019-Oct-20 16:31 144 0 gusting 3 15.6
2019-Oct-20 16:16 098 0 gusting 3 15.6
2019-Oct-20 16:01 041 1 gusting 4 15.0
2019-Oct-20 15:46 081 0 gusting 4 14.4
2019-Oct-20 15:31 112 14.4
2019-Oct-20 15:16 101 13.9
2019-Oct-20 15:01 056 13.9
2019-Oct-20 14:47 008 13.3
2019-Oct-20 14:30 008 0 gusting 2 12.8
2019-Oct-20 14:15 063 12.8
2019-Oct-20 14:00 005 0 gusting 1 12.2
2019-Oct-20 13:45 151 12.2
2019-Oct-20 13:30 151 11.1
2019-Oct-20 13:15 151 11.1
2019-Oct-20 13:00 151 10.6
2019-Oct-20 12:45 151 9.4
2019-Oct-20 12:30 151 8.9
2019-Oct-20 12:15 151 8.3
2019-Oct-20 12:00 151 8.3
2019-Oct-20 11:47 151 6.1
2019-Oct-20 11:32 151 7.8
2019-Oct-20 11:17 150 5.6
2019-Oct-20 11:01 150 5.0
2019-Oct-20 10:47 150 5.6
2019-Oct-20 10:31 150 5.6
2019-Oct-20 10:17 151 5.0
2019-Oct-20 10:01 152 5.6
2019-Oct-20 09:47 152 6.1
2019-Oct-20 09:32 152 6.7
2019-Oct-20 09:16 152 6.1
2019-Oct-20 09:02 150 7.8
2019-Oct-20 08:46 156 0 gusting 1 6.1
2019-Oct-20 08:32 156 5.6
2019-Oct-20 08:16 153 6.1
2019-Oct-20 08:02 153 6.1
2019-Oct-20 07:47 153 6.7
2019-Oct-20 07:31 153 6.7
2019-Oct-20 07:16 153 6.7
2019-Oct-20 07:01 153 7.2
2019-Oct-20 06:46 144 7.8
2019-Oct-20 06:31 148 8.9
2019-Oct-20 06:16 147 6.7
2019-Oct-20 06:00 146 7.2
2019-Oct-20 05:46 147 7.2
2019-Oct-20 05:31 147 6.7
2019-Oct-20 05:15 159 7.2
2019-Oct-20 05:01 160 7.2
2019-Oct-20 04:45 159 7.8
2019-Oct-20 04:31 150 7.8
2019-Oct-20 04:15 150 0 gusting 1 7.8
2019-Oct-20 04:00 154 0 gusting 1 8.3
2019-Oct-20 03:45 149 0 gusting 1 8.3
2019-Oct-20 03:31 155 8.3
2019-Oct-20 03:15 155 0 gusting 1 8.9
2019-Oct-20 03:00 153 0 gusting 2 8.3
2019-Oct-20 02:45 150 8.3
2019-Oct-20 02:30 150 8.9
2019-Oct-20 02:15 150 9.4
2019-Oct-20 02:00 150 8.9
2019-Oct-20 01:46 150 8.3
2019-Oct-20 01:30 150 8.9
2019-Oct-20 01:15 150 8.9
2019-Oct-20 01:00 150 9.4
2019-Oct-20 00:45 150 9.4
2019-Oct-20 00:30 152 9.4
2019-Oct-20 00:15 144 10.0
2019-Oct-20 00:00 148 9.4
2019-Oct-19 23:45 150 0 gusting 2 10.0
2019-Oct-19 23:30 152 10.0
2019-Oct-19 23:15 153 0 gusting 2 10.0
2019-Oct-19 23:00 165 10.6
2019-Oct-19 22:45 159 0 gusting 1 10.6
2019-Oct-19 22:30 155 0 gusting 3 11.1
2019-Oct-19 22:15 160 11.1
2019-Oct-19 22:00 145 12.2
2019-Oct-19 21:45 153 13.3
2019-Oct-19 21:30 159 13.9
2019-Oct-19 21:15 134 13.9
2019-Oct-19 21:00 200 14.4
2019-Oct-19 20:45 134 0 gusting 2 15.0
2019-Oct-19 20:30 148 15.0
2019-Oct-19 20:15 201 15.6
2019-Oct-19 19:46 290 1 gusting 6 15.0
2019-Oct-19 19:32 318 0 gusting 6 15.0
2019-Oct-19 19:18 200 0 gusting 4 15.6
2019-Oct-19 19:01 208 0 gusting 4 15.6
2019-Oct-19 18:46 323 1 gusting 4 15.0
2019-Oct-19 18:31 335 0 gusting 3 15.0
2019-Oct-19 18:17 007 0 gusting 2 15.0
2019-Oct-19 18:01 354 14.4
2019-Oct-19 17:47 303 1 gusting 4 13.9
2019-Oct-19 17:31 302 0 gusting 3 13.9
2019-Oct-19 17:16 133 1 gusting 3 14.4
2019-Oct-19 17:01 301 13.3
2019-Oct-19 16:47 016 1 gusting 4 12.8
2019-Oct-19 16:31 220 0 gusting 5 12.8
2019-Oct-19 16:16 290 0 gusting 4 12.2
2019-Oct-19 16:01 346 1 gusting 4 12.2
2019-Oct-19 15:46 348 1 gusting 6 12.2
2019-Oct-19 15:30 323 0 gusting 2 11.7
2019-Oct-19 15:16 017 0 gusting 4 11.1
2019-Oct-19 15:01 319 0 gusting 2 11.1
2019-Oct-19 14:45 360 10.6
2019-Oct-19 14:31 297 10.6
2019-Oct-19 14:15 337 11.1
2019-Oct-19 14:00 012 0 gusting 4 10.6
2019-Oct-19 13:45 290 10.0
2019-Oct-19 13:30 324 0 gusting 2 10.0
2019-Oct-19 13:15 294 9.4
2019-Oct-19 13:00 146 9.4
2019-Oct-19 12:46 142 8.3
2019-Oct-19 12:30 147 8.3
2019-Oct-19 12:15 147 7.2
2019-Oct-19 12:00 148 5.0
2019-Oct-19 11:45 146 3.9
2019-Oct-19 11:30 150 3.9
2019-Oct-19 11:15 138 3.9
2019-Oct-19 11:00 138 4.4
2019-Oct-19 10:45 229 4.4
2019-Oct-19 10:31 275 5.0
2019-Oct-19 10:16 288 5.0
2019-Oct-19 10:02 260 3.9
2019-Oct-19 09:46 232 4.4
2019-Oct-19 09:31 155 4.4
2019-Oct-19 09:16 155 5.6
2019-Oct-19 09:01 282 6.7
2019-Oct-19 08:46 304 6.7
2019-Oct-19 08:31 283 6.7
2019-Oct-19 08:16 309 7.2
2019-Oct-19 08:01 359 7.2
2019-Oct-19 07:45 345 7.2
2019-Oct-19 07:31 325 7.2
2019-Oct-19 07:16 347 7.2
2019-Oct-19 07:01 326 0 gusting 5 7.2
2019-Oct-19 06:45 337 7.8
2019-Oct-19 06:30 347 7.8
2019-Oct-19 06:16 348 7.8
2019-Oct-19 06:01 320 7.8
2019-Oct-19 05:46 290 7.8
2019-Oct-19 05:30 333 0 gusting 4 7.8
2019-Oct-19 05:15 300 7.8
2019-Oct-19 05:01 297 7.8
2019-Oct-19 04:46 283 0 gusting 4 7.8
2019-Oct-19 04:30 306 0 gusting 6 7.8
2019-Oct-19 04:15 281 0 gusting 6 7.8
2019-Oct-19 04:00 307 0 gusting 6 7.8
2019-Oct-19 03:45 291 1 gusting 6 8.3
2019-Oct-19 03:30 302 1 gusting 6 8.3
2019-Oct-19 03:15 297 1 gusting 6 8.3
2019-Oct-19 03:00 326 8.9
2019-Oct-19 02:45 047 1 gusting 5 8.9
2019-Oct-19 02:30 283 1 gusting 7 8.9
2019-Oct-19 02:15 304 1 gusting 6 8.9
2019-Oct-19 02:00 297 1 gusting 6 8.9
2019-Oct-19 01:46 315 1 gusting 6 8.9
2019-Oct-19 01:31 330 1 gusting 8 9.4
2019-Oct-19 01:17 305 0 gusting 4 9.4
2019-Oct-19 01:01 310 0 gusting 9 9.4
2019-Oct-19 00:46 291 0 gusting 8 10.0
2019-Oct-19 00:31 300 1 gusting 9 10.0
2019-Oct-19 00:15 309 2 gusting 8 10.0
2019-Oct-19 00:01 303 3 gusting 9 10.6